Location: Aulnoy
(48.8410°N, 3.0967°E)
Time: 14:07:38
(UTC+00:00)

Cosmos 1626 Rocket - Pass Details

Date: 09 February 2023
Orbit: 603 x 629 km, 82.5° (Epoch: 21 March)

Event Time Altitude Azimuth Distance (km) Brightness Sun altitude
Rises 17:39:57 0° 157° (SSE) 2,847 6.9 -7.4°
Reaches altitude 10° 17:42:24 10° 145° (SE) 1,952 5.9 -7.8°
Maximum altitude 17:46:00 26° 88° (E) 1,200 4.5 -8.4°
Drops below altitude 10° 17:49:39 10° 32° (NNE) 1,976 5.7 -9.0°
Sets 17:52:08 0° 20° (NNE) 2,891 6.7 -9.4°
